EW4496 Weather Reports


time (UTC)temp
C
wind
direction
speed
KPH
gust
KPH
rain 1hr
cm
rain 24hr
cm
rain mn
cm
humidity
%
barometer
mb
20260901000010 25 15 4.8 19.3 0.00 0.00 0.00 48 1010.1
20260831234510 25 205 6.4 14.5 0.00 0.00 0.00 48 1010.1
20260831233011 25 340 4.8 16.1 0.00 0.00 0.00 47 1010.3
20260831231511 25 340 3.2 17.7 0.00 0.00 0.00 47 1010.3
20260831230009 25 18 1.6 16.1 0.00 0.00 0.00 46 1010.5
20260831224510 25 356 0.0 16.1 0.00 0.00 0.00 47 1010.6
20260831223027 26 29 1.6 16.1 0.00 0.00 0.00 45 1010.6
20260831221611 26 334 0.0 20.9 0.00 0.00 0.00 45 1010.7
20260831220010 26 347 1.6 16.1 0.00 0.00 0.00 45 1010.8
20260831214510 26 279 3.2 17.7 0.00 0.00 0.00 44 1011.0
20260831213010 25 274 3.2 12.9 0.00 0.00 0.00 43 1011.1
20260831211532 25 330 1.6 14.5 0.00 0.00 0.00 44 1011.2
20260831210034 25 26 4.8 17.7 0.00 0.00 0.00 45 1011.3
20260831204526 25 321 1.6 14.5 0.00 0.00 0.00 45 1011.3
20260831203030 24 314 3.2 12.9 0.00 0.00 0.00 47 1011.4
20260831201529 23 302 6.4 14.5 0.00 0.00 0.00 49 1011.7
20260831200030 23 312 3.2 14.5 0.00 0.00 0.00 50 1011.8
20260831194614 23 273 1.6 14.5 0.00 0.00 0.00 51 1011.9
20260831193101 22 3 4.8 16.1 0.00 0.00 0.00 52 1012.1
20260831191559 22 266 4.8 19.3 0.00 0.00 0.00 53 1012.1
20260831190100 22 330 4.8 16.1 0.00 0.00 0.00 53 1012.1
20260831184602 22 222 3.2 16.1 0.00 0.00 0.00 55 1012.2
20260831183104 21 300 3.2 17.7 0.00 0.00 0.00 54 1012.1
20260831181614 21 347 3.2 12.9 0.00 0.00 0.00 56 1012.1
20260831180113 21 6 3.2 12.9 0.00 0.00 0.00 57 1012.1
20260831174614 21 355 1.6 9.7 0.00 0.00 0.00 56 1012.1
20260831173114 21 315 0.0 9.7 0.00 0.00 0.00 59 1012.0
20260831171517 20 278 1.6 11.3 0.00 0.00 0.00 60 1012.0
20260831170015 20 228 0.0 6.4 0.00 0.00 0.00 61 1011.9
20260831164513 19 307 1.6 11.3 0.00 0.00 0.00 64 1011.9
20260831163100 19 316 0.0 8.0 0.00 0.00 0.00 65 1011.9
20260831161604 18 271 0.0 8.0 0.00 0.00 0.00 67 1011.9
20260831160018 18 259 0.0 9.7 0.00 0.00 0.00 70 1011.9
20260831154513 17 328 1.6 8.0 0.00 0.00 0.00 71 1011.9
20260831153013 17 282 0.0 8.0 0.00 0.00 0.00 74 1011.8
20260831151529 16 332 0.0 9.7 0.00 0.00 0.00 77 1011.8
20260831150028 16 338 0.0 6.4 0.00 0.00 0.00 79 1011.7
20260831144528 15 329 0.0 0.0 0.00 0.00 0.00 83 1011.5
20260831143027 14 333 0.0 1.6 0.00 0.00 0.00 85 1011.2
20260831141531 13 342 0.0 0.0 0.00 0.00 0.00 87 1011.2
20260831140027 13 342 0.0 0.0 0.00 0.00 0.00 88 1010.9
20260831134515 13 330 0.0 0.0 0.00 0.00 0.00 88 1010.7
20260831133012 13 328 0.0 0.0 0.00 0.00 0.00 87 1010.5
20260831131512 13 317 0.0 0.0 0.00 0.00 0.00 86 1010.5
20260831130012 13 329 0.0 0.0 0.00 0.00 0.00 86 1010.3
20260831124512 13 309 0.0 3.2 0.00 0.00 0.00 85 1010.2
20260831123020 13 333 0.0 4.8 0.00 0.00 0.00 84 1010.1
20260831121513 13 351 0.0 1.6 0.00 0.00 0.00 84 1010.1
20260831120027 13 321 0.0 0.0 0.00 0.00 0.00 83 1010.1
20260831114527 13 317 0.0 0.0 0.00 0.00 0.00 82 1010.0
20260831113027 13 316 0.0 0.0 0.00 0.00 0.00 81 1010.0
20260831111536 14 284 0.0 0.0 0.00 0.00 0.00 78 1010.0
20260831110032 15 317 0.0 0.0 0.00 0.00 0.00 78 1010.0
20260831104532 15 333 0.0 4.8 0.00 0.00 0.00 76 1010.0
20260831103111 16 309 0.0 9.7 0.00 0.00 0.00 74 1010.0
20260831101512 16 347 1.6 8.0 0.00 0.00 0.00 73 1009.9
20260831100127 16 296 0.0 11.3 0.00 0.00 0.00 71 1009.8
20260831094611 16 263 1.6 9.7 0.00 0.00 0.00 71 1009.8
20260831093133 15 258 0.0 0.0 0.00 0.00 0.00 73 1009.8
20260831091611 16 258 0.0 0.0 0.00 0.00 0.00 73 1009.9
20260831090138 16 258 0.0 0.0 0.00 0.00 0.00 72 1009.8
20260831084610 16 258 0.0 0.0 0.00 0.00 0.00 72 1009.8
20260831083114 16 259 0.0 0.0 0.00 0.00 0.00 72 1009.9
20260831081611 17 253 0.0 0.0 0.00 0.00 0.00 69 1009.9
20260831080130 17 252 0.0 0.0 0.00 0.00 0.00 68 1009.9
20260831074613 17 253 0.0 0.0 0.00 0.00 0.00 67 1010.0
20260831073114 17 291 0.0 4.8 0.00 0.00 0.00 66 1009.9
20260831071614 17 278 0.0 4.8 0.00 0.00 0.00 66 1009.9
20260831070040 18 235 0.0 3.2 0.00 0.00 0.00 64 1009.8
20260831064555 18 231 1.6 8.0 0.00 0.00 0.00 64 1009.8
20260831063109 18 247 3.2 8.0 0.00 0.00 0.00 63 1009.8
20260831061555 18 223 0.0 4.8 0.00 0.00 0.00 64 1010.0
20260831060058 19 267 0.0 4.8 0.00 0.00 0.00 63 1010.0
20260831054555 20 262 0.0 3.2 0.00 0.00 0.00 62 1009.9
20260831053126 20 245 0.0 4.8 0.00 0.00 0.00 60 1009.9
20260831051554 20 261 0.0 0.0 0.00 0.00 0.00 60 1009.9
20260831050057 20 298 0.0 0.0 0.00 0.00 0.00 58 1009.8
20260831044640 21 307 0.0 1.6 0.00 0.00 0.00 56 1009.7
20260831043056 21 4 0.0 0.0 0.00 0.00 0.00 54 1009.6
20260831041550 22 360 0.0 1.6 0.00 0.00 0.00 52 1009.5
20260831040050 23 328 0.0 6.4 0.00 0.00 0.00 46 1009.3
20260831034549 23 337 0.0 3.2 0.00 0.00 0.00 42 1009.1
20260831033105 24 338 0.0 8.0 0.00 0.00 0.00 42 1009.0
20260831031552 25 7 0.0 9.7 0.00 0.00 0.00 40 1008.8
20260831030051 26 330 0.0 4.8 0.00 0.00 0.00 38 1008.7
20260831024550 27 308 0.0 4.8 0.00 0.00 0.00 34 1008.7
20260831023055 28 340 0.0 6.4 0.00 0.00 0.00 33 1008.6
20260831021515 30 338 0.0 6.4 0.00 0.00 0.00 29 1008.5
20260831020009 31 347 0.0 11.3 0.00 0.00 0.00 29 1008.5
20260831014524 31 350 3.2 9.7 0.00 0.00 0.00 29 1008.5
20260831013024 32 10 1.6 9.7 0.00 0.00 0.00 29 1008.5
20260831011527 32 314 0.0 6.4 0.00 0.00 0.00 26 1008.5
20260831010035 33 310 0.0 8.0 0.00 0.00 0.00 24 1008.6
20260831004524 33 298 0.0 6.4 0.00 0.00 0.00 24 1008.6
20260831003024 33 344 0.0 6.4 0.00 0.00 0.00 23 1008.6
20260831001525 33 262 0.0 4.8 0.00 0.00 0.00 24 1008.7